Wind_Speed
24 26 30 40 34 31 29 26 22 20 17 20 22 22 23 21 19 16 14 13 11 10 9 7 7 10 12 10 7 5 5 10
9 19 16 29 35 33 32 28 24 21 21 23 25 20 21 19 17 15 14 11 10 7 4 3 4 8 11 9 5 4 6 9
13 12 11 29 27 34 33 31 26 25 27 28 26 24 23 21 17 15 12 11 7 5 2 2 6 8 9 7 3 3 6 6
14 16 13 26 29 31 38 39 33 28 29 32 30 27 25 21 18 14 12 8 4 2 1 5 5 6 7 3 2 4 7 6
12 15 21 32 27 31 21 40 40 35 34 33 29 28 19 19 16 12 8 6 4 1 4 6 10 10 4 3 3 6 9 7
13 16 18 33 21 33 29 26 38 38 39 36 28 27 24 18 14 10 9 6 2 3 6 9 9 5 3 5 7 7 11 9
15 17 30 26 27 40 35 37 43 46 47 45 34 24 20 16 13 10 8 5 5 5 8 8 7 5 4 6 5 8 11 10
15 17 29 22 32 34 36 34 37 51 49 35 25 21 19 16 13 11 9 8 7 7 9 9 7 6 7 8 9 10 12 9
18 19 20 24 20 22 22 22 28 38 32 25 25 25 20 16 14 12 10 9 8 11 11 11 8 8 9 10 10 11 10 15
12 16 17 17 15 17 23 26 35 33 28 29 29 20 19 16 13 12 11 11 13 13 13 12 10 12 12 12 14 14 14 16
10 15 26 33 36 36 34 30 28 27 28 27 23 21 18 14 14 14 14 15 16 15 14 12 12 15 15 15 17 19 19 21
24 27 24 22 20 20 22 27 26 25 22 19 19 19 17 17 17 17 16 19 18 17 14 14 14 16 19 21 21 21 24 25
19 19 18 18 18 16 19 18 18 17 17 18 18 18 18 20 21 19 19 20 19 17 17 17 17 17 19 24 26 26 27 28
15 17 17 15 15 14 15 16 16 16 19 19 19 20 20 20 22 21 21 22 22 19 19 20 21 19 21 25 25 31 33 28
14 14 16 15 15 15 15 16 17 19 18 19 19 19 20 21 23 24 22 25 25 23 24 23 23 23 23 25 28 31 32 31
12 11 12 15 14 16 17 16 15 15 15 15 17 19 21 23 24 27 27 26 29 27 28 26 26 31 26 27 33 33 32 33
13 15 17 15 15 15 16 16 16 17 17 15 18 20 22 25 27 28 26 27 29 32 32 29 29 31 33 31 29 34 36 33
16 17 17 18 17 21 18 17 18 20 20 21 19 19 24 23 31 27 30 34 35 31 36 33 32 31 34 36 35 35 36 31
19 19 20 21 18 16 18 19 20 23 25 25 21 23 23 21 18 24 32 36 37 41 38 38 35 33 37 37 39 36 36 30
23 23 23 23 22 19 16 18 20 20 22 22 24 31 26 29 28 31 36 39 42 43 48 41 36 35 39 44 41 38 33 34
Wind_Direction
222 171 200 201 185 179 178 179 179 181 179 170 167 161 161 156 157 153 137 137 125 116 98 87 68 49 38 35 43 35 3 22
212 283 229 181 180 174 177 179 179 179 174 169 167 170 168 165 158 156 141 146 135 120 103 57 40 31 20 18 28 349 337 36
239 267 274 228 202 183 178 178 177 169 168 170 172 168 175 168 165 156 153 164 136 121 93 13 15 5 2 0 357 323 346 23
235 256 258 223 209 185 180 175 173 170 173 173 172 180 174 169 173 158 177 153 156 161 352 354 342 344 351 333 314 338 342 7
253 271 264 216 214 197 216 204 189 172 179 175 173 177 168 183 182 176 176 171 181 332 343 340 335 349 352 310 319 327 327 351
262 253 249 197 224 198 188 192 168 178 181 175 168 173 191 185 183 185 185 189 216 301 327 339 326 325 316 316 329 337 331 4
245 233 228 230 230 208 194 184 177 183 188 184 173 176 195 189 192 198 203 221 250 288 327 312 303 291 300 309 318 338 330 337
267 235 215 234 223 189 206 217 218 198 191 166 168 193 193 197 202 212 221 235 262 299 307 291 285 279 301 308 318 333 317 321
236 231 219 203 219 210 202 203 209 204 166 167 184 192 191 204 214 222 235 254 274 291 290 284 282 286 297 309 310 312 323 325
185 189 196 224 213 176 160 167 146 141 160 178 189 197 202 208 224 234 249 259 268 284 287 288 294 291 300 297 294 306 316 319
189 146 132 126 123 124 131 140 152 177 190 190 194 201 205 217 231 241 252 264 269 282 280 290 289 285 286 293 300 304 313 313
116 126 130 135 136 145 160 171 178 182 188 190 202 209 214 229 236 252 253 260 269 278 278 281 280 280 285 293 295 304 310 313
137 135 136 142 153 173 173 175 182 193 201 204 212 222 223 233 240 245 254 262 268 272 268 271 272 279 283 289 293 297 309 315
155 152 153 165 176 187 189 193 201 208 217 217 222 230 233 241 249 253 255 264 268 272 266 270 270 276 278 286 295 302 308 312
191 168 178 187 190 190 196 202 211 216 224 220 232 236 241 244 250 257 256 263 269 274 269 268 271 273 276 283 290 293 296 308
173 178 185 190 195 195 204 208 219 226 236 233 239 244 248 251 253 259 263 270 270 275 268 266 270 276 272 277 289 288 293 296
187 195 198 201 212 204 220 221 226 234 245 245 248 254 258 258 258 264 268 274 277 278 267 267 265 271 279 281 282 287 286 287
207 211 218 217 221 221 236 233 240 246 253 259 260 267 273 271 263 265 264 273 277 273 267 262 268 267 269 278 284 282 283 287
225 227 233 238 245 237 243 250 248 253 256 264 265 266 268 282 288 286 287 285 283 281 276 262 270 267 270 272 277 280 280 287
234 237 239 244 250 253 251 253 256 252 260 274 274 279 276 280 280 281 285 286 286 279 266 276 265 271 272 273 281 285 286 291
Height
3096 3096 3097 3102 3108 3115 3123 3130 3135 3139 3143 3147 3151 3154 3157 3159 3162 3164 3165 3168 3170 3171 3172 3173 3174 3174 3174 3174 3173 3173 3170 3170
3104 3101 3098 3084 3101 3111 3120 3128 3134 3139 3142 3146 3150 3153 3157 3160 3162 3164 3165 3168 3169 3171 3173 3173 3174 3173 3173 3173 3173 3172 3169 3171
3100 3100 3097 3097 3103 3110 3119 3126 3132 3136 3141 3144 3149 3152 3155 3158 3161 3163 3165 3168 3169 3170 3172 3173 3172 3172 3172 3173 3173 3171 3170 3170
3097 3098 3098 3100 3106 3108 3112 3120 3126 3134 3139 3143 3146 3152 3155 3157 3161 3162 3166 3166 3168 3170 3171 3170 3171 3172 3172 3173 3172 3170 3169 3169
3095 3098 3098 3098 3100 3107 3114 3119 3120 3130 3139 3144 3146 3152 3155 3159 3161 3163 3165 3166 3168 3168 3169 3169 3168 3169 3170 3171 3170 3168 3166 3167
3094 3096 3096 3089 3102 3107 3111 3117 3122 3130 3136 3139 3143 3149 3156 3158 3160 3162 3164 3165 3165 3167 3167 3166 3167 3168 3168 3168 3168 3166 3163 3165
3094 3098 3097 3100 3101 3104 3109 3114 3120 3125 3131 3134 3145 3150 3157 3157 3159 3161 3163 3164 3164 3166 3165 3166 3166 3167 3167 3167 3167 3165 3163 3163
3093 3095 3096 3099 3099 3105 3108 3110 3113 3120 3128 3139 3144 3151 3153 3155 3158 3160 3161 3163 3163 3163 3164 3165 3165 3165 3165 3165 3164 3162 3162 3163
3092 3095 3096 3100 3102 3104 3104 3110 3115 3123 3134 3139 3146 3150 3152 3155 3158 3159 3160 3160 3161 3162 3163 3163 3162 3162 3163 3162 3162 3162 3161 3157
3088 3095 3098 3100 3100 3102 3106 3112 3121 3128 3136 3143 3147 3148 3151 3153 3156 3157 3158 3158 3159 3160 3160 3159 3159 3159 3160 3160 3159 3158 3157 3156
3092 3095 3096 3100 3104 3108 3114 3120 3125 3131 3137 3140 3143 3146 3149 3151 3153 3154 3156 3156 3156 3156 3157 3157 3157 3156 3157 3156 3155 3153 3153 3152
3097 3098 3102 3106 3109 3113 3117 3123 3128 3131 3134 3139 3142 3144 3146 3149 3151 3152 3153 3153 3153 3153 3153 3154 3154 3154 3152 3150 3151 3150 3148 3147
3099 3101 3105 3108 3112 3116 3118 3122 3126 3130 3133 3137 3139 3141 3144 3146 3148 3148 3150 3150 3151 3150 3150 3151 3150 3150 3149 3146 3145 3144 3142 3141
3104 3106 3107 3112 3114 3117 3120 3124 3126 3130 3133 3135 3138 3139 3142 3144 3144 3145 3147 3146 3146 3147 3146 3145 3145 3145 3144 3141 3139 3136 3134 3137
3104 3105 3109 3113 3115 3117 3120 3123 3125 3128 3130 3133 3135 3137 3139 3140 3140 3140 3143 3141 3141 3142 3141 3140 3139 3139 3139 3137 3134 3134 3131 3128
3104 3105 3109 3112 3114 3117 3119 3121 3124 3126 3129 3131 3133 3135 3135 3136 3136 3136 3137 3137 3136 3137 3137 3135 3132 3128 3134 3132 3130 3127 3125 3123
3104 3106 3108 3110 3113 3115 3117 3120 3123 3124 3126 3129 3130 3131 3132 3131 3132 3132 3132 3131 3129 3129 3129 3129 3126 3124 3120 3123 3124 3121 3119 3115
3102 3104 3107 3109 3111 3114 3116 3118 3121 3122 3123 3124 3127 3128 3128 3127 3127 3127 3125 3124 3124 3120 3118 3119 3118 3118 3116 3114 3114 3112 3111 3108
3101 3103 3106 3107 3109 3112 3114 3116 3118 3118 3118 3120 3121 3120 3121 3121 3119 3119 3120 3119 3117 3114 3110 3108 3111 3110 3109 3108 3106 3105 3102 3101
3099 3101 3103 3105 3106 3108 3111 3112 3112 3114 3114 3114 3113 3113 3115 3115 3115 3114 3113 3111 3109 3105 3101 3100 3101 3102 3102 3099 3099 3097 3094 3092